User: anonymous   Login
Location: Shenandoah County Park
(38.9356°N, 78.4524°W)
Time: 06:30:49
(UTC-05:00)
Language:

Altair - Orbit

View from above orbital plane
View from above orbital plane
View from above satellite
View from above satellite

Ground track
Ground track

The orbit data is extracted from the following two-line orbital elements,

1 00050U 60009B   24053.89889329 -.00000029  00000-0  53979-3 0  9998
2 00050  47.2290 265.4085 0113660  15.7199 344.7076 12.20138009834495
Epoch (UTC): 22 February 2024 21:34:24
Eccentricity: 0.0113660
inclination: 47.2290°
perigee height: 1501 km
apogee height: 1682 km
right ascension of ascending node: 265.4085°
argument of perigee: 15.7199°
revolutions per day: 12.20138009
mean anomaly at epoch: 344.7076°
orbit number at epoch: 83449

The dashed part of the orbit path shows where the satellite is in the earth's shadow,  

DLR